Portage, MI

3:07 AM EDT on July 29, 2016 (GMT -0400)
Kalamazoo-Battle Creek International

Weather History for KAZO - February, 2014

Change the Weather History Date:

Tuesday, February 4, 2014

  Actual Average Record
Temperature  
Mean Temperature 12 °F 25 °F  
Max Temperature 24 °F 32 °F 54 °F (1962)
Min Temperature 0 °F 18 °F -6 °F (1970)
Degree Days  
Heating Degree Days 53 40  
Month to date heating degree days 199 160  
Since 1 July heating degree days 4029 3868  
Cooling Degree Days 0 0  
Month to date cooling degree days 0 0  
Year to date cooling degree days 0 0  
Moisture  
Dew Point 6 °F    
Average Humidity 74    
Maximum Humidity 95    
Minimum Humidity 52    
Precipitation  
Precipitation T in 0.04 in 0.75 in (1986)
Month to date precipitation 0.31 0.16  
Year to date precipitation 1.43 1.95  
Sea Level Pressure  
Sea Level Pressure 30.34 in    
Wind  
Wind Speed 3 mph (East)    
Max Wind Speed 12 mph    
Max Gust Speed 17 mph    
Visibility 5 miles    
Events Fog , Snow    
T = Trace of Precipitation, MM = Missing Value Source: NWS Daily Summary

Daily Weather History Graph

Daily Weather History Graph

Search for Another Location

Airport or City:

Trip Planner

Search our weather history database for the weather conditions in past years. The results will help you decide how hot, cold, wet, or windy it might be!

Date:

Astronomy

Feb. 04, 2014 Rise Set
Actual Time 7:52 AM EST 6:00 PM EST
Civil Twilight 7:22 AM EST 6:30 PM EST
Nautical Twilight 6:49 AM EST 7:03 PM EST
Astronomical Twilight 6:16 AM EST 7:36 PM EST
Moon 10:22 AM EST (2/4) No Moon Set
Length of Visible Light 11h 07m
Length of Day
10h 08m
Waxing Crescent, 29% of the Moon is Illuminated
Feb 4
Waxing Crescent
Feb 6
First Quarter
Feb 14
Full
Feb 22
Last Quarter
Mar 1
New

Hourly Weather History & Observations

Time (EST) Temp. Windchill Dew Point Humidity Pressure Visibility Wind Dir Wind Speed Gust Speed Precip Events Conditions
12:53 AM 6.1 °F - 3.0 °F 87% 30.43 in 5.0 mi Calm Calm - N/A   Clear
1:33 AM 3.9 °F - -0.0 °F 84% 30.37 in 6.0 mi Calm Calm - N/A   Partly Cloudy
1:53 AM 5.0 °F - -0.0 °F 80% 30.43 in 5.0 mi Calm Calm - N/A   Haze
2:40 AM 3.0 °F - -0.9 °F 84% 30.36 in 1.8 mi Calm Calm - N/A   Scattered Clouds
2:44 AM 3.0 °F - -0.0 °F 87% 30.37 in 0.8 mi Calm Calm - N/A   Mist
2:53 AM 1.9 °F - -0.9 °F 88% 30.43 in 1.0 mi Calm Calm - N/A   Mist
2:56 AM 1.9 °F - -0.9 °F 88% 30.37 in 2.0 mi Calm Calm - N/A   Scattered Clouds
2:59 AM 3.0 °F - -0.9 °F 84% 30.37 in 6.0 mi Calm Calm - N/A   Mostly Cloudy
3:05 AM 3.0 °F - -0.0 °F 87% 30.37 in 0.8 mi Calm Calm - N/A   Mist
3:16 AM 1.9 °F - -0.0 °F 91% 30.36 in 0.2 mi Calm Calm - N/A Fog Light Freezing Fog
3:26 AM 3.0 °F - -0.0 °F 87% 30.36 in 0.8 mi Calm Calm - N/A   Mist
3:31 AM 3.0 °F - -0.9 °F 84% 30.36 in 1.5 mi Calm Calm - N/A   Partly Cloudy
3:34 AM 3.0 °F - -0.0 °F 87% 30.36 in 3.0 mi Calm Calm - N/A   Partly Cloudy
3:53 AM 1.0 °F - -2.0 °F 87% 30.42 in 7.0 mi Calm Calm - N/A   Clear
4:42 AM 1.9 °F - -2.9 °F 80% 30.38 in 7.0 mi Calm Calm - N/A   Scattered Clouds
4:51 AM 1.4 °F -6.2 °F -2.2 °F 85% 30.38 in 7.0 mi South 3.5 mph - N/A   Mostly Cloudy
4:53 AM 1.9 °F -5.6 °F -2.0 °F 83% 30.44 in 8.0 mi South 3.5 mph - N/A   Mostly Cloudy
5:35 AM 5.0 °F -4.1 °F 1.9 °F 87% 30.39 in 5.0 mi South 4.6 mph - N/A   Scattered Clouds
5:53 AM 5.0 °F -2.1 °F -0.0 °F 80% 30.45 in 6.0 mi South 3.5 mph - N/A   Haze
6:53 AM 3.0 °F -4.4 °F -0.9 °F 84% 30.46 in 5.0 mi South 3.5 mph - N/A   Clear
7:53 AM 3.9 °F - -0.0 °F 84% 30.46 in 3.0 mi Calm Calm - N/A   Partly Cloudy
8:53 AM 8.1 °F 1.4 °F 3.9 °F 83% 30.48 in 3.0 mi SSE 3.5 mph - N/A   Clear
9:53 AM 10.0 °F - 7.0 °F 87% 30.46 in 4.0 mi Calm Calm - N/A   Clear
10:53 AM 12.0 °F - 10.0 °F 92% 30.47 in 6.0 mi Calm Calm - N/A   Clear
11:53 AM 17.1 °F - 10.0 °F 74% 30.42 in 8.0 mi Calm Calm - N/A   Clear
12:53 PM 21.0 °F - 7.0 °F 55% 30.40 in 9.0 mi Calm Calm - N/A   Clear
1:53 PM 23.0 °F - 9.0 °F 55% 30.36 in 9.0 mi Calm Calm - N/A   Mostly Cloudy
2:53 PM 24.1 °F - 10.0 °F 55% 30.35 in 10.0 mi Calm Calm - N/A   Overcast
3:53 PM 24.1 °F 17.0 °F 12.0 °F 60% 30.35 in 10.0 mi ESE 5.8 mph - N/A   Overcast
4:53 PM 24.1 °F 17.0 °F 12.0 °F 60% 30.33 in 10.0 mi East 5.8 mph - N/A   Overcast
5:53 PM 23.0 °F 15.8 °F 12.0 °F 63% 30.32 in 10.0 mi East 5.8 mph - N/A   Overcast
6:53 PM 23.0 °F 18.4 °F 12.0 °F 63% 30.32 in 10.0 mi ENE 3.5 mph - N/A   Overcast
7:53 PM 23.0 °F 18.4 °F 12.0 °F 63% 30.30 in 10.0 mi ENE 3.5 mph - N/A   Overcast
8:53 PM 21.9 °F 12.5 °F 12.0 °F 66% 30.24 in 10.0 mi ENE 8.1 mph - N/A   Overcast
9:41 PM 21.0 °F 14.6 °F 14.0 °F 74% 30.17 in 2.5 mi ENE 4.6 mph - 0.00 in Snow Light Snow
9:53 PM 21.0 °F 14.6 °F 15.1 °F 78% 30.22 in 2.0 mi ENE 4.6 mph - 0.00 in Snow Light Snow
10:06 PM 21.0 °F 12.4 °F 15.1 °F 78% 30.15 in 3.0 mi ENE 6.9 mph - 0.00 in Snow Light Snow
10:53 PM 21.0 °F 10.6 °F 15.1 °F 78% 30.17 in 3.0 mi NE 9.2 mph - 0.00 in Snow Light Snow
11:04 PM 19.9 °F 10.1 °F 15.1 °F 81% 30.10 in 2.5 mi NE 8.1 mph - 0.00 in Snow Light Snow
11:14 PM 19.9 °F 12.1 °F 15.1 °F 81% 30.11 in 2.0 mi ENE 5.8 mph 17.3 mph 0.00 in Snow Light Snow
11:25 PM 19.9 °F 10.1 °F 16.0 °F 85% 30.11 in 3.0 mi ENE 8.1 mph - 0.00 in Snow Light Snow
11:53 PM 19.9 °F 9.3 °F 15.1 °F 81% 30.15 in 5.0 mi ENE 9.2 mph - 0.00 in Snow Light Snow